SVA216 KSAN-KPHX

Flight info

Callsign SVA216
Flight time 0h 49m
Altitude 27000
Route CLSSY3 HOGGZ HYDRR1
Aircraft B77L/H-VGDW/C

Departure

Time 2026-04-26 02:48
Airport San Diego International Airport (KSAN)

Arrival

Time 2026-04-26 03:38
Airport Phoenix Sky Harbor International Airport (KPHX)
Time Latitude Longitude Altitude Speed Heading
2026-04-26 02:07 32.73807 -117.18701 26 ft 0 kts 324°
2026-04-26 02:34 32.73803 -117.18696 31 ft 1 kts 332°
2026-04-26 02:34 32.73797 -117.18693 31 ft 1 kts 20°
2026-04-26 02:34 32.73790 -117.18696 31 ft 1 kts 20°
2026-04-26 02:34 32.73784 -117.18698 31 ft 1 kts 32°
2026-04-26 02:35 32.73778 -117.18703 31 ft 1 kts 33°
2026-04-26 02:35 32.73773 -117.18707 31 ft 1 kts 87°
2026-04-26 02:35 32.73773 -117.18702 31 ft 1 kts 87°
2026-04-26 02:35 32.73773 -117.18694 31 ft 1 kts 87°
2026-04-26 02:36 32.73774 -117.18686 31 ft 1 kts 88°
2026-04-26 02:36 32.73771 -117.18678 31 ft 1 kts 110°
2026-04-26 02:36 32.73769 -117.18671 31 ft 1 kts 112°
2026-04-26 02:36 32.73764 -117.18666 32 ft 1 kts 143°
2026-04-26 02:37 32.73763 -117.18665 32 ft 0 kts 143°
2026-04-26 02:40 32.73731 -117.18637 32 ft 10 kts 143°
2026-04-26 02:41 32.73673 -117.18581 29 ft 11 kts 136°
2026-04-26 02:41 32.73610 -117.18532 28 ft 11 kts 146°
2026-04-26 02:41 32.73547 -117.18478 30 ft 11 kts 144°
2026-04-26 02:41 32.73484 -117.18424 29 ft 11 kts 145°
2026-04-26 02:42 32.73425 -117.18386 28 ft 8 kts 172°
2026-04-26 02:42 32.73378 -117.18400 30 ft 6 kts 197°
2026-04-26 02:42 32.73340 -117.18395 30 ft 5 kts 148°
2026-04-26 02:42 32.73324 -117.18354 31 ft 6 kts 107°
2026-04-26 02:43 32.73290 -117.18219 27 ft 12 kts 106°
2026-04-26 02:43 32.73264 -117.18108 28 ft 16 kts 106°
2026-04-26 02:43 32.73239 -117.18004 24 ft 12 kts 105°
2026-04-26 02:44 32.73216 -117.17907 27 ft 12 kts 105°
2026-04-26 02:44 32.73192 -117.17812 27 ft 12 kts 107°
2026-04-26 02:44 32.73170 -117.17726 29 ft 8 kts 106°
2026-04-26 02:44 32.73155 -117.17665 28 ft 8 kts 106°
2026-04-26 02:45 32.73140 -117.17603 28 ft 7 kts 109°
2026-04-26 02:45 32.73115 -117.17567 25 ft 0 kts 144°
2026-04-26 02:47 32.73113 -117.17566 26 ft 2 kts 144°
2026-04-26 02:47 32.73081 -117.17538 25 ft 8 kts 148°
2026-04-26 02:47 32.73043 -117.17527 27 ft 5 kts 182°
2026-04-26 02:47 32.73022 -117.17544 28 ft 3 kts 237°
2026-04-26 02:48 32.73022 -117.17584 28 ft 13 kts 282°
2026-04-26 02:48 32.73094 -117.17879 24 ft 79 kts 287°
2026-04-26 02:48 32.73337 -117.18887 26 ft 173 kts 286°
2026-04-26 02:48 32.73704 -117.20415 653 ft 189 kts 286°
2026-04-26 02:49 32.73932 -117.21369 1624 ft 181 kts 284°
2026-04-26 02:49 32.74303 -117.22893 2063 ft 205 kts 284°
2026-04-26 02:49 32.74721 -117.24615 2498 ft 223 kts 284°
2026-04-26 02:49 32.75157 -117.26411 3274 ft 228 kts 284°
2026-04-26 02:50 32.75597 -117.28230 4094 ft 231 kts 284°
2026-04-26 02:50 32.76041 -117.30064 4954 ft 233 kts 285°
2026-04-26 02:50 32.76466 -117.31918 5725 ft 234 kts 278°
2026-04-26 02:50 32.76319 -117.33833 6395 ft 238 kts 247°
2026-04-26 02:51 32.75349 -117.35422 7153 ft 242 kts 220°
2026-04-26 02:51 32.73835 -117.36298 7944 ft 247 kts 194°
2026-04-26 02:51 32.72098 -117.36206 8681 ft 259 kts 165°
2026-04-26 02:51 32.70535 -117.35080 9397 ft 270 kts 140°
2026-04-26 02:52 32.69264 -117.33401 10093 ft 277 kts 134°
2026-04-26 02:52 32.68051 -117.31603 10760 ft 280 kts 134°
2026-04-26 02:52 32.66819 -117.29801 11447 ft 282 kts 136°
2026-04-26 02:52 32.65562 -117.28004 12125 ft 284 kts 137°
2026-04-26 02:53 32.64282 -117.26197 12804 ft 287 kts 137°
2026-04-26 02:53 32.63190 -117.24218 13334 ft 303 kts 115°
2026-04-26 02:53 32.62768 -117.21657 13519 ft 332 kts 99°
2026-04-26 02:53 32.62572 -117.18859 13881 ft 346 kts 100°
2026-04-26 02:54 32.62345 -117.15974 14376 ft 355 kts 101°
2026-04-26 02:54 32.62089 -117.13026 14865 ft 367 kts 101°
2026-04-26 02:54 32.62047 -117.09909 14959 ft 394 kts 83°
2026-04-26 02:54 32.62907 -117.06723 15118 ft 418 kts 68°
2026-04-26 02:55 32.64093 -117.03475 15288 ft 438 kts 68°
2026-04-26 02:55 32.65260 -117.00083 15749 ft 450 kts 70°
2026-04-26 02:55 32.66384 -116.96568 16291 ft 457 kts 74°
2026-04-26 02:55 32.66929 -116.92871 16860 ft 455 kts 92°
2026-04-26 02:56 32.66938 -116.89091 17395 ft 462 kts 94°
2026-04-26 02:56 32.66923 -116.85250 18045 ft 468 kts 94°
2026-04-26 02:56 32.66963 -116.81363 18634 ft 474 kts 92°
2026-04-26 02:56 32.67047 -116.77411 19038 ft 486 kts 92°
2026-04-26 02:57 32.67141 -116.73358 19328 ft 497 kts 93°
2026-04-26 02:57 32.67126 -116.69217 19700 ft 505 kts 96°
2026-04-26 02:57 32.67029 -116.65029 20209 ft 510 kts 96°
2026-04-26 02:57 32.66916 -116.60833 20791 ft 513 kts 96°
2026-04-26 02:58 32.66819 -116.56590 21320 ft 517 kts 96°
2026-04-26 02:58 32.66735 -116.52299 21806 ft 522 kts 96°
2026-04-26 02:58 32.66666 -116.47971 22289 ft 527 kts 96°
2026-04-26 02:58 32.66598 -116.43603 22785 ft 532 kts 96°
2026-04-26 02:59 32.66661 -116.39183 23277 ft 539 kts 91°
2026-04-26 02:59 32.67015 -116.34724 23753 ft 545 kts 88°
2026-04-26 02:59 32.67509 -116.30241 24141 ft 550 kts 86°
2026-04-26 02:59 32.68025 -116.25733 24438 ft 556 kts 86°
2026-04-26 03:00 32.68509 -116.21162 24784 ft 560 kts 88°
2026-04-26 03:00 32.68949 -116.16554 25193 ft 562 kts 88°
2026-04-26 03:00 32.69352 -116.11997 25614 ft 563 kts 88°
2026-04-26 03:00 32.69752 -116.07367 25994 ft 565 kts 88°
2026-04-26 03:01 32.70159 -116.02711 26347 ft 568 kts 88°
2026-04-26 03:01 32.70581 -115.98026 26635 ft 573 kts 88°
2026-04-26 03:01 32.71018 -115.93297 26792 ft 580 kts 88°
2026-04-26 03:01 32.71462 -115.88532 26838 ft 582 kts 88°
2026-04-26 03:02 32.71907 -115.83772 26842 ft 582 kts 88°
2026-04-26 03:02 32.72349 -115.79000 26844 ft 582 kts 88°
2026-04-26 03:02 32.72788 -115.74216 26846 ft 583 kts 88°
2026-04-26 03:02 32.73222 -115.69428 26845 ft 584 kts 88°
2026-04-26 03:03 32.73655 -115.64625 26839 ft 585 kts 88°
2026-04-26 03:03 32.74085 -115.59824 26814 ft 585 kts 88°
2026-04-26 03:03 32.74516 -115.55017 26809 ft 585 kts 88°
2026-04-26 03:03 32.74938 -115.50209 26813 ft 584 kts 89°
2026-04-26 03:04 32.75210 -115.45413 26823 ft 582 kts 92°
2026-04-26 03:04 32.75334 -115.40628 26810 ft 580 kts 94°
2026-04-26 03:04 32.75389 -115.35862 26803 ft 579 kts 95°
2026-04-26 03:04 32.75431 -115.31086 26801 ft 578 kts 94°
2026-04-26 03:05 32.75488 -115.26310 26802 ft 578 kts 94°
2026-04-26 03:05 32.75568 -115.21540 26802 ft 577 kts 94°
2026-04-26 03:05 32.75667 -115.16774 26805 ft 577 kts 93°
2026-04-26 03:05 32.75775 -115.12014 26804 ft 576 kts 93°
2026-04-26 03:06 32.75885 -115.07250 26800 ft 575 kts 93°
2026-04-26 03:06 32.75993 -115.02512 26688 ft 571 kts 93°
2026-04-26 03:06 32.76096 -114.97830 26551 ft 568 kts 93°
2026-04-26 03:06 32.76191 -114.93112 26426 ft 575 kts 93°
2026-04-26 03:07 32.76284 -114.88353 26244 ft 575 kts 93°
2026-04-26 03:07 32.76377 -114.83618 26047 ft 571 kts 93°
2026-04-26 03:07 32.76469 -114.78918 25877 ft 567 kts 93°
2026-04-26 03:07 32.76559 -114.74241 25700 ft 565 kts 93°
2026-04-26 03:08 32.76645 -114.69598 25516 ft 562 kts 93°
2026-04-26 03:08 32.76729 -114.64960 25348 ft 560 kts 93°
2026-04-26 03:08 32.76811 -114.60345 25179 ft 558 kts 93°
2026-04-26 03:08 32.76887 -114.55742 25000 ft 556 kts 94°
2026-04-26 03:09 32.76953 -114.51163 24896 ft 554 kts 94°
2026-04-26 03:09 32.77015 -114.46580 24858 ft 554 kts 94°
2026-04-26 03:09 32.77074 -114.42061 24818 ft 555 kts 94°
2026-04-26 03:09 32.77132 -114.37483 24814 ft 554 kts 94°
2026-04-26 03:10 32.77191 -114.32913 24807 ft 554 kts 94°
2026-04-26 03:10 32.77249 -114.28329 24808 ft 554 kts 94°
2026-04-26 03:10 32.77306 -114.23761 24805 ft 554 kts 94°
2026-04-26 03:10 32.77361 -114.19174 24801 ft 554 kts 94°
2026-04-26 03:11 32.77415 -114.14596 24797 ft 554 kts 94°
2026-04-26 03:11 32.77466 -114.10021 24791 ft 553 kts 94°
2026-04-26 03:11 32.77549 -114.05508 24771 ft 538 kts 91°
2026-04-26 03:11 32.77894 -114.01149 24743 ft 522 kts 86°
2026-04-26 03:12 32.78410 -113.96947 24719 ft 506 kts 84°
2026-04-26 03:12 32.78956 -113.92873 24699 ft 491 kts 84°
2026-04-26 03:12 32.79460 -113.88913 24684 ft 485 kts 85°
2026-04-26 03:12 32.79920 -113.84939 24694 ft 487 kts 86°
2026-04-26 03:13 32.80352 -113.80961 24691 ft 485 kts 86°
2026-04-26 03:13 32.80776 -113.76988 24701 ft 484 kts 86°
2026-04-26 03:13 32.81203 -113.73019 24696 ft 482 kts 85°
2026-04-26 03:13 32.82031 -113.69167 24674 ft 484 kts 68°
2026-04-26 03:14 32.83704 -113.65712 24438 ft 484 kts 48°
2026-04-26 03:14 32.85942 -113.62782 24111 ft 479 kts 44°
2026-04-26 03:14 32.88207 -113.59886 23738 ft 477 kts 45°
2026-04-26 03:14 32.90444 -113.56975 23392 ft 474 kts 45°
2026-04-26 03:15 32.92635 -113.54071 22992 ft 469 kts 46°
2026-04-26 03:15 32.94793 -113.51174 22624 ft 464 kts 46°
2026-04-26 03:15 32.96915 -113.48308 22275 ft 459 kts 46°
2026-04-26 03:15 32.99010 -113.45473 21938 ft 453 kts 46°
2026-04-26 03:16 33.01058 -113.42702 21617 ft 448 kts 46°
2026-04-26 03:16 33.03101 -113.39940 21292 ft 443 kts 46°
2026-04-26 03:16 33.05131 -113.37193 20966 ft 439 kts 46°
2026-04-26 03:16 33.07140 -113.34477 20652 ft 436 kts 46°
2026-04-26 03:17 33.09145 -113.31769 20346 ft 436 kts 46°
2026-04-26 03:17 33.11154 -113.29055 20037 ft 437 kts 47°
2026-04-26 03:17 33.13164 -113.26337 19717 ft 436 kts 47°
2026-04-26 03:17 33.15168 -113.23624 19399 ft 434 kts 47°
2026-04-26 03:18 33.17158 -113.20926 19084 ft 432 kts 47°
2026-04-26 03:18 33.19138 -113.18239 18762 ft 430 kts 47°
2026-04-26 03:18 33.21111 -113.15561 18462 ft 427 kts 47°
2026-04-26 03:18 33.23061 -113.12912 18145 ft 423 kts 47°
2026-04-26 03:19 33.24993 -113.10287 17804 ft 417 kts 47°
2026-04-26 03:19 33.26647 -113.07538 17425 ft 399 kts 65°
2026-04-26 03:19 33.27504 -113.04446 17193 ft 388 kts 84°
2026-04-26 03:19 33.27678 -113.01285 17072 ft 378 kts 93°
2026-04-26 03:20 33.27721 -112.98132 16847 ft 382 kts 93°
2026-04-26 03:20 33.27764 -112.94933 16582 ft 387 kts 92°
2026-04-26 03:20 33.27822 -112.91719 16293 ft 386 kts 92°
2026-04-26 03:20 33.27895 -112.88529 16028 ft 382 kts 92°
2026-04-26 03:21 33.27972 -112.85378 15750 ft 375 kts 92°
2026-04-26 03:21 33.28050 -112.82338 15464 ft 358 kts 91°
2026-04-26 03:21 33.28225 -112.79389 15233 ft 354 kts 88°
2026-04-26 03:21 33.28502 -112.76475 14989 ft 351 kts 86°
2026-04-26 03:22 33.28800 -112.73586 14735 ft 349 kts 86°
2026-04-26 03:22 33.29095 -112.70713 14492 ft 347 kts 86°
2026-04-26 03:22 33.29381 -112.67854 14237 ft 346 kts 86°
2026-04-26 03:22 33.29657 -112.65008 13989 ft 344 kts 87°
2026-04-26 03:23 33.29927 -112.62177 13742 ft 342 kts 87°
2026-04-26 03:23 33.30191 -112.59362 13478 ft 340 kts 87°
2026-04-26 03:23 33.30452 -112.56560 13207 ft 338 kts 87°
2026-04-26 03:23 33.30711 -112.53770 12941 ft 336 kts 87°
2026-04-26 03:24 33.30963 -112.51041 12692 ft 334 kts 87°
2026-04-26 03:24 33.31217 -112.48291 12451 ft 332 kts 87°
2026-04-26 03:24 33.31468 -112.45558 12216 ft 330 kts 87°
2026-04-26 03:24 33.31718 -112.42834 11974 ft 329 kts 87°
2026-04-26 03:25 33.31966 -112.40124 11737 ft 327 kts 87°
2026-04-26 03:25 33.32212 -112.37424 11495 ft 325 kts 87°
2026-04-26 03:25 33.32457 -112.34746 11264 ft 324 kts 87°
2026-04-26 03:25 33.32699 -112.32067 10971 ft 323 kts 87°
2026-04-26 03:26 33.32943 -112.29402 10664 ft 322 kts 86°
2026-04-26 03:26 33.33187 -112.26745 10294 ft 320 kts 87°
2026-04-26 03:26 33.33425 -112.24145 9908 ft 307 kts 87°
2026-04-26 03:26 33.33650 -112.21677 9489 ft 290 kts 87°
2026-04-26 03:27 33.33862 -112.19351 9112 ft 273 kts 87°
2026-04-26 03:27 33.34062 -112.17135 8884 ft 263 kts 87°
2026-04-26 03:27 33.34254 -112.14983 8495 ft 258 kts 88°
2026-04-26 03:27 33.34443 -112.12865 8107 ft 254 kts 88°
2026-04-26 03:28 33.34623 -112.10856 7778 ft 251 kts 88°
2026-04-26 03:28 33.34791 -112.08805 7471 ft 246 kts 91°
2026-04-26 03:28 33.34795 -112.06766 7148 ft 245 kts 96°
2026-04-26 03:28 33.34745 -112.04720 6823 ft 246 kts 96°
2026-04-26 03:29 33.34699 -112.02678 6523 ft 246 kts 95°
2026-04-26 03:29 33.34663 -112.00640 6249 ft 246 kts 95°
2026-04-26 03:29 33.34632 -111.98589 5930 ft 246 kts 95°
2026-04-26 03:29 33.34603 -111.96539 5617 ft 246 kts 94°
2026-04-26 03:30 33.34575 -111.94497 5318 ft 245 kts 94°
2026-04-26 03:30 33.34543 -111.92492 5023 ft 244 kts 94°
2026-04-26 03:30 33.34509 -111.90468 4774 ft 242 kts 93°
2026-04-26 03:30 33.34488 -111.88454 4468 ft 241 kts 92°
2026-04-26 03:31 33.34483 -111.86457 4170 ft 239 kts 91°
2026-04-26 03:31 33.34495 -111.84509 4070 ft 229 kts 90°
2026-04-26 03:31 33.34514 -111.82620 4038 ft 232 kts 90°
2026-04-26 03:31 33.34533 -111.80679 4037 ft 236 kts 90°
2026-04-26 03:32 33.34565 -111.78715 4036 ft 238 kts 89°
2026-04-26 03:32 33.34601 -111.76749 4026 ft 237 kts 87°
2026-04-26 03:32 33.35059 -111.74900 4026 ft 230 kts 55°
2026-04-26 03:32 33.36234 -111.73690 4026 ft 222 kts 21°
2026-04-26 03:33 33.37717 -111.73483 4053 ft 216 kts 347°
2026-04-26 03:33 33.39031 -111.74301 4033 ft 214 kts 314°
2026-04-26 03:33 33.39996 -111.75663 4031 ft 216 kts 306°
2026-04-26 03:33 33.40883 -111.77060 4012 ft 204 kts 305°
2026-04-26 03:34 33.41717 -111.78379 4002 ft 193 kts 305°
2026-04-26 03:34 33.42459 -111.79689 3851 ft 188 kts 289°
2026-04-26 03:34 33.42631 -111.80693 3770 ft 184 kts 274°
2026-04-26 03:34 33.42770 -111.82228 3808 ft 188 kts 275°
2026-04-26 03:35 33.42858 -111.83796 3765 ft 189 kts 271°
2026-04-26 03:35 33.42876 -111.85374 3504 ft 189 kts 269°
2026-04-26 03:35 33.42877 -111.86910 3224 ft 177 kts 269°
2026-04-26 03:35 33.42877 -111.88316 3025 ft 162 kts 270°
2026-04-26 03:36 33.42877 -111.89644 2838 ft 158 kts 270°
2026-04-26 03:36 33.42878 -111.90960 2622 ft 159 kts 270°
2026-04-26 03:36 33.42879 -111.92294 2427 ft 160 kts 270°
2026-04-26 03:36 33.42879 -111.93620 2200 ft 159 kts 270°
2026-04-26 03:37 33.42881 -111.94944 2036 ft 161 kts 270°
2026-04-26 03:37 33.42882 -111.96288 1807 ft 161 kts 271°
2026-04-26 03:37 33.42882 -111.97614 1596 ft 157 kts 270°
2026-04-26 03:37 33.42882 -111.98904 1382 ft 152 kts 270°
2026-04-26 03:38 33.42884 -112.00166 1177 ft 152 kts 270°
2026-04-26 03:38 33.42885 -112.01389 1130 ft 135 kts 270°
2026-04-26 03:38 33.42885 -112.02147 1127 ft 43 kts 270°
2026-04-26 03:38 33.42893 -112.02451 1120 ft 22 kts 294°
2026-04-26 03:39 33.42949 -112.02523 1119 ft 11 kts 317°
2026-04-26 03:39 33.42992 -112.02588 1117 ft 10 kts 278°
2026-04-26 03:39 33.42995 -112.02649 1122 ft 0 kts 272°
2026-04-26 03:40 33.42995 -112.02658 1122 ft 6 kts 275°
2026-04-26 03:41 33.43022 -112.02692 1121 ft 6 kts 336°
2026-04-26 03:41 33.43070 -112.02698 1122 ft 11 kts 358°
2026-04-26 03:41 33.43175 -112.02699 1133 ft 15 kts
2026-04-26 03:41 33.43227 -112.02699 1131 ft 0 kts 360°
2026-04-26 03:42 33.43235 -112.02699 1132 ft 5 kts 360°
2026-04-26 03:42 33.43271 -112.02708 1123 ft 5 kts 329°
2026-04-26 03:43 33.43290 -112.02745 1120 ft 5 kts 284°
2026-04-26 03:43 33.43295 -112.02790 1123 ft 5 kts 276°
2026-04-26 03:43 33.43295 -112.02835 1127 ft 5 kts 270°
2026-04-26 03:43 33.43295 -112.02880 1128 ft 5 kts 270°
2026-04-26 03:44 33.43295 -112.02897 1128 ft 1 kts 270°
2026-04-26 03:44 33.43295 -112.02908 1128 ft 1 kts 270°
2026-04-26 03:44 33.43295 -112.02916 1128 ft 0 kts 270°